Tracking 25744 objects as of 24-Jun-2022
HD Live streaming from Space Station
objects crossing your sky now

OICETS

Track OICETS now!
10-day predictions
OICETS is classified as:


NORAD ID: 28809
Int'l Code: 2005-031A
Perigee: 559.6 km
Apogee: 579.4 km
Inclination: 98.1 °
Period: 95.9 minutes
Semi major axis: 6940 km
RCS: 1.711 m2 (large)
Launch date: August 23, 2005
Source: Japan (JPN)
Launch site: TYURATAM MISSILE AND SPACE COMPLEX (TTMTR)

Study inter-satellite communications.
aabbcc
Your satellite tracking list
Your tracking list is empty




NASA's NSSDC Master Catalog

Two Line Element Set (TLE):
1 28809U 05031A   22175.42893156  .00000961  00000-0  79383-4 0  9991
2 28809  98.0877 319.0619 0014266 320.9404  39.0788 15.01476442918993
Source of the keplerian elements: AFSPC